7 * 24
多渠道服务支持
IRIDIUM 175 是 Iridium 卫星通信公司运营的卫星之一,属于 Iridium NEXT 卫星星座。该星座由 66 颗低轨道卫星组成,提供全球范围的语音和数据通信服务。IRIDIUM 175 于 2017 年发射,运行在极地轨道上,支持航空、航海、政府和应急通信等应用。卫星采用先进设计,具备抗干扰能力和高可靠性,为用户在偏远地区提供稳定的通信连接。
美国
(US)
| 数据来源 | 国际轨道数据 |
| 星历时间: | 2025-10-28T15:35:31+0800 1天前 查看轨道信息 |
| 半长轴: | 7032.061km |
| 偏心率: | 0.0001574 |
| 轨道倾角: | 86.156° |
| 近地点辐角 | 101.984° |
| 升交点赤经 | 35.474° |
| 平近点角 | 258.155° |
| 近地点: | 652.819km |
| 远地点: | 655.033km |
| 周期: | 97.810分钟 |
| 每日圈数: | 14.722407 |